WEATHER DATA

YESTERDAY
Time Temp. Dewp. Hum. Wind dir Wind speed Wind gust Bar. 1h Prec. 24h Prec.
00:06 18.5 10.6 60 0 0 1011.7 0.1010 0.1000
00:17 18.5 10.6 60 0 0 1011.8 0.1010 0.1000
00:27 18.5 10.8 61 0 0 1012 0.1010 0.1000
00:37 18.5 10.8 61 0 0 1012.2 0.1010 0.1000
00:46 18.5 10.8 61 0 0 1012.1 0.1010 0.1000
00:57 18.5 10.8 61 0 0 1012.2 0.1010 0.1000
01:07 18.5 10.8 61 0 0 1012.2 0.0000 0.1000
01:17 18.5 10.8 61 0 0 1012.3 0.1010 0.2000
01:28 18.5 10.8 61 0 0 1012.3 0.1010 0.2000
01:38 18.5 11.1 62 0 0 1012.3 0.1010 0.2000
01:47 18.5 11.1 62 0 0 1012.2 0.2020 0.3000
01:58 18.4 11 62 0 0 1012.2 0.2020 0.3000
02:08 18.4 11 62 0 0 1012.1 0.2020 0.3000
02:18 18.3 10.9 62 0 0 1012.1 0.1010 0.3000
02:28 18.3 10.9 62 0 0 1012.1 0.2020 0.4000
02:38 18.2 10.8 62 0 0 1012.1 0.2020 0.4000
02:48 18.1 11 63 0 0 1012.1 0.1010 0.4000
02:58 18 10.9 63 0 0 1012.1 0.1010 0.4000
03:08 17.9 10.8 63 0 0 1012.1 0.2020 0.5000
03:19 17.8 10.7 63 0 0 1012 0.2020 0.5000
03:28 17.7 10.6 63 0 0 1012 0.1010 0.5000
03:38 17.6 10.5 63 0 0 1012 0.1010 0.5000
03:49 17.6 10.7 64 0 0 1011.9 0.1010 0.5000
03:59 17.5 10.6 64 0 0 1011.9 0.1010 0.5000
04:09 17.5 10.6 64 0 0 1011.9 0.0000 0.5000
04:19 17.4 10.5 64 0 0 1012.1 0.1010 0.6000
04:29 17.3 10.4 64 0 0 1012.4 0.1010 0.6000
04:39 17.2 10.3 64 0 0 1012.6 0.1010 0.6000
04:49 17.2 10.6 65 0 0 1012.6 0.1010 0.6000
05:00 17.2 10.6 65 0 0 1012.6 0.1010 0.6000
05:09 17.2 10.6 65 0 0 1012.7 0.1010 0.6000
05:19 17.1 10.5 65 0 0 1012.9 0.0000 0.6000
05:29 17.2 10.6 65 0 0 1012.9 0.0000 0.6000
05:40 17.2 10.6 65 0 0 1012.9 0.0000 0.6000
05:50 17.2 10.6 65 0 0 1013.1 0.0000 0.6000
05:59 17.2 10.6 65 0 0 1013.1 0.0000 0.6000
06:16 17.1 10.7 66 0 0 1013.1 0.0000 0.6000
06:27 17.1 10.7 66 0 0 1013.1 0.0000 0.6000
06:37 17.1 10.7 66 0 0 1013.2 0.0000 0.6000
06:47 17.1 10.7 66 0 0 1013.1 0.0000 0.6000
06:57 17.1 10.7 66 0 0 1013.2 0.0000 0.6000
07:07 17.2 10.8 66 0 0 1013.2 0.0000 0.6000
07:17 17.2 10.8 66 0 0 1013.1 0.0000 0.6000
07:27 17.4 11.2 67 0 0 1013.1 0.0000 0.6000
07:38 17.6 11.4 67 0 0 1013.3 0.0000 0.6000
07:47 17.7 11.5 67 0 0 1013.3 0.0000 0.6000
07:57 17.8 11.6 67 0 0 1013.2 0.0000 0.6000
08:08 17.8 11.6 67 0 0 1013.2 0.0000 0.6000
08:18 18.1 11.9 67 0 0 1013.3 0.0000 0.6000
08:28 18.8 12.8 68 0 0 1013.3 0.0000 0.6000
08:37 18.5 12.3 67 0 0 1013.4 0.0000 0.6000
08:48 18.7 12.5 67 0 0 1013.4 0.0000 0.6000
08:58 18.8 12.5 67 0 0 1013.5 0.0000 0.6000
09:08 19.4 13.3 68 0 0 1013.5 0.0000 0.6000
09:18 20.4 14.3 68 0 0 1013.5 0.0000 0.6000
09:28 20.7 14.6 68 0 0 1013.6 0.0000 0.6000
09:38 20.7 14.4 67 0 0 1013.6 0.0000 0.6000
09:48 21.3 15.2 68 0 0 1013.7 0.0000 0.6000
09:59 21.6 15.2 67 0 0 1013.7 0.0000 0.6000
10:09 22.3 16.1 68 0 0 1013.8 0.0000 0.6000
10:19 22.6 16.2 67 0 0 1013.8 0.0000 0.6000
10:29 22.7 16.3 67 0 0 1013.9 0.0000 0.6000
10:39 22.1 15.2 65 0 0 1014 0.0000 0.6000
17:08 23 13.2 54 0 0 1014 0.0000 0.6000
17:18 22.9 13.1 54 0 0 1014 0.0000 0.6000
17:28 22.9 13.1 54 0 0 1013.8 0.0000 0.6000
17:38 22.8 13 54 0 0 1013.9 0.0000 0.6000
17:49 22.6 12.8 54 0 0 1013.9 0.0000 0.6000
17:58 22.4 12.4 53 0 0 1013.8 0.0000 0.6000
18:08 22.2 12.2 53 0 0 1013.8 0.0000 0.6000
18:18 22 12 53 0 0 1013.7 0.0000 0.6000
18:29 22.1 12.1 53 0 0 1013.7 0.0000 0.6000
18:39 22.1 11.8 52 0 0 1013.6 0.0000 0.6000
18:48 22.2 11.9 52 0 0 1013.5 0.0000 0.6000
18:59 22.2 11.9 52 0 0 1013.6 0.0000 0.6000
19:09 22.1 11.8 52 0 0 1013.6 0.0000 0.6000
19:19 22 11.7 52 0 0 1013.6 0.0000 0.6000
19:29 21.8 11.5 52 0 0 1013.7 0.0000 0.6000
19:39 21.7 11.4 52 0 0 1013.8 0.0000 0.6000
19:49 21.6 11.3 52 0 0 1013.9 0.0000 0.6000
19:59 21.4 11.1 52 0 0 1013.8 0.0000 0.6000
20:10 21.3 11.1 52 0 0 1013.8 0.0000 0.6000
20:20 21.1 10.9 52 0 0 1013.8 0.0000 0.6000
20:29 20.8 10.3 51 0 0 1013.9 0.0000 0.6000
20:39 20.6 10.1 51 0 0 1013.9 0.0000 0.6000
21:00 20.1 9.7 51 0 0 1013.9 0.0000 0.6000
21:10 19.9 9.5 51 0 0 1014.1 0.0000 0.6000
21:20 19.7 9.3 51 0 0 1014.2 0.0000 0.6000
21:40 19.3 8.9 51 0 0 1014.3 0.0000 0.6000
21:50 19.1 9 52 0 0 1014.3 0.0000 0.6000
22:01 18.9 8.8 52 0 0 1014.4 0.0000 0.6000
22:10 18.6 8.6 52 0 0 1014.4 0.0000 0.6000
22:20 18.5 8.5 52 0 0 1014.4 0.0000 0.6000
22:31 18.3 8.3 52 0 0 1014.5 0.0000 0.6000
22:41 18.2 8.2 52 0 0 1014.5 0.0000 0.6000
22:51 18.1 8.1 52 0 0 1014.5 0.0000 0.6000
23:01 17.9 7.9 52 0 0 1014.5 0.0000 0.6000
23:11 17.8 7.8 52 0 0 1014.5 0.0000 0.6000
23:21 17.7 7.7 52 0 0 1014.5 0.0000 0.6000
23:31 17.6 7.9 53 0 0 1014.6 0.0000 0.6000
23:41 17.5 7.8 53 0 0 1014.6 0.0000 0.6000
23:52 17.4 7.7 53 0 0 1014.7 0.0000

DAY STATISTIC

2024-07-24
TEMPERATURE
AVERAGE
19.2
HIGH
23.0
17:08
LOW
17.1
05:19
PRESSURE
AVERAGE
1013.3
HIGH
1014.7
23:52
LOW
1011.7
00:06
DEWPOINT
AVERAGE
11.1
HIGH
16.3
10:29
LOW
7.7
23:21
HUMIDITY
AVERAGE
60
HIGH
68
08:28
LOW
51
20:29
WIND SPEED
AVERAGE
0.0
HIGH
0.0
20:14
WIND GUST
AVERAGE
0.0
HIGH
0.0
20:14
WIND DIRECTION
PREVAILING
%
PRECIPITATION
RAIN HOUR
0.2
RAIN DAY
0.6
TEMPERATURE (°C)
LOW
17.1
HIGH
23.0
AVERAGE
19.2
PRESSURE (hpa)
LOW
1011.7
HIGH
1014.7
AVERAGE
1013.3
DEVICE